[[[{"header":{"parameterUnit":"kt","parameterCategory":2,"dx":1,"dy":1,"la1":30.253999710083008,"la2":30.299108505249023,"lo1":-89.0895004272461,"lo2":-89.04439544677734,"nx":28,"ny":28,"refTime":"2022-09-20T09:00:00:Z","depth":0,"parameterNumber":1,"parameterNumberName":"U-component_of_WINDS"},"data":[-2.6043,-2.6158,-2.6157,-2.6288,-2.6309,-2.6398,-2.643,-2.647,-2.6501,-2.6607,-2.6667,-2.6677,-2.6708,-2.6778,-2.6843,-2.6846,-2.6874,-2.6914,-2.6911,-2.6729,-2.6704,-2.6679,-2.6653,-2.692,-2.6921,-2.7101,-2.7102,-2.7104,-2.5907,-2.593,-2.5999,-2.6066,-2.6124,-2.6084,-2.6133,-2.6185,-2.6266,-2.6305,-2.6365,-2.6457,-2.6529,-2.6547,-2.6616,-2.6669,-2.6654,-2.6688,-2.6684,-2.669,-2.6494,-2.6466,-2.6698,-2.6698,-2.6698,-2.6698,-2.6698,-2.6698,-2.5661,-2.573,-2.577,-2.5845,-2.5878,-2.5923,-2.5988,-2.5999,-2.6067,-2.614,-2.6125,-2.6216,-2.6255,-2.6338,-2.6366,-2.6436,-2.6398,-2.6435,-2.6444,-2.6454,-2.6465,-2.6207,-2.6447,-2.6446,-2.6446,-2.6445,-2.6445,0,-2.5481,-2.5476,-2.5542,-2.5609,-2.5663,-2.5714,-2.5761,-2.5801,-2.5789,-2.5845,-2.5926,-2.5972,-2.6063,-2.6138,-2.6203,-2.6224,-2.6189,-2.6184,-2.621,-2.622,-2.6219,-2.6222,-2.5904,-2.6178,-2.6176,-2.6174,-2.6173,-2.6172,-2.5234,-2.5314,-2.5356,-2.5402,-2.5428,-2.5503,-2.5548,-2.5531,-2.5579,-2.5634,-2.5695,-2.5771,-2.583,-2.5959,-2.5972,-2.6039,-2.6023,-2.6128,-2.6033,-2.6038,-2.6026,-2.6022,-2.603,-2.6147,-2.6151,-2.6153,-2.6155,0,-2.5094,-2.5093,-2.5218,-2.5251,-2.5261,-2.5347,-2.5374,-2.5442,-2.5446,-2.554,-2.5561,-2.5567,-2.5646,-2.5641,-2.5731,-2.5726,-2.5866,-2.5847,-2.5852,-2.5848,-2.5942,-2.5934,-2.6247,-2.6287,-2.6008,-2.6011,-2.6013,0,-2.4883,-2.499,-2.4982,-2.5054,-2.5171,-2.5152,-2.5269,-2.5284,-2.5318,-2.5392,-2.535,-2.542,-2.5403,-2.5472,-2.5465,-2.5578,-2.5595,-2.5598,-2.5595,-2.5603,-2.5603,-2.5629,-2.5617,-2.5584,-2.5583,-2.5581,-2.558,0,-2.4667,-2.4787,-2.4905,-2.4932,-2.4978,-2.5033,-2.5055,-2.5093,-2.5137,-2.5193,-2.5222,-2.5288,-2.5325,-2.5377,-2.5368,-2.5304,-2.5505,-2.5415,-2.5509,-2.5509,-2.5555,-2.5553,-2.583,-2.5578,-2.5578,-2.5577,-2.5577,0,-2.4497,-2.4555,-2.4725,-2.4763,-2.4795,-2.4872,-2.4937,-2.5002,-2.5045,-2.5046,-2.509,-2.5062,-2.516,-2.5071,-2.5205,-2.5125,-2.5163,-2.5175,-2.5182,-2.5192,-2.5093,-2.5252,-2.5514,-2.5542,-2.5199,-2.5195,-2.5193,0,-2.425,-2.4422,-2.4407,-2.4569,-2.4648,-2.4596,-2.4681,-2.4721,-2.4729,-2.4797,-2.4805,-2.4882,-2.4815,-2.4838,-2.4905,-2.4918,-2.5022,-2.4903,-2.5001,-2.5005,-2.4993,-2.5234,-2.5275,-2.5457,-2.5152,-2.5156,-2.5159,0,-2.4059,-2.4115,-2.4145,-2.4175,-2.4225,-2.4291,-2.4388,-2.4461,-2.4507,-2.4556,-2.4638,-2.4745,-2.4699,-2.4739,-2.4724,-2.4794,-2.4951,-2.4735,-2.4736,-2.4775,-2.5131,-2.517,-2.52,-2.4925,-2.4929,-2.4933,-2.5127,0,-2.3804,-2.389,-2.3971,-2.404,-2.4089,-2.4191,-2.4187,-2.4239,-2.4219,-2.4226,-2.4345,-2.4377,-2.4452,-2.4484,-2.4466,-2.4628,-2.4601,-2.4551,-2.4466,-2.4623,-2.4687,-2.4713,-2.437,-2.4368,-2.4366,-2.4364,0,0,-2.3569,-2.3692,-2.3673,-2.3768,-2.3809,-2.3755,-2.3863,-2.3897,-2.3966,-2.3996,-2.3948,-2.4105,-2.4134,-2.428,-2.4329,-2.4358,-2.4387,-2.4333,-2.4548,-2.4568,-2.4587,-2.4656,-2.4683,-2.436,-2.4359,-2.4359,-2.4358,0,-2.3476,-2.3506,-2.3614,-2.3647,-2.3697,-2.3699,-2.3724,-2.3764,-2.3773,-2.3891,-2.3845,-2.3916,-2.4043,-2.4079,-2.4114,-2.4314,-2.4276,-2.4337,-2.4446,-2.4526,-2.455,-2.457,-2.4643,-2.4669,-2.4353,-2.4353,-2.4353,0,-2.3288,-2.3317,-2.3369,-2.3459,-2.3492,-2.3574,-2.3483,-2.3574,-2.3635,-2.3571,-2.3689,-2.3706,-2.3754,-2.3893,-2.3955,-2.3913,-2.4176,-2.4092,-2.4105,-2.4113,-2.419,-2.4218,-2.4243,-2.3914,-2.3912,-2.3911,0,0,-2.3208,-2.3287,-2.3314,-2.3439,-2.3462,-2.3467,-2.351,-2.3495,-2.3539,-2.3558,-2.358,-2.3624,-2.3697,-2.3746,-2.3815,-2.3968,-2.3976,-2.4038,-2.4059,-2.4076,-2.4092,-2.4174,-2.4202,-2.3905,-2.3905,-2.3905,0,0,-2.317,-2.3206,-2.3178,-2.3323,-2.3367,-2.3401,-2.3478,-2.3445,-2.3507,-2.3495,-2.3474,-2.3485,-2.3614,-2.3633,-2.3557,-2.3785,-2.37,-2.3718,-2.3768,-2.3794,-2.3814,-2.3808,-2.347,0,0,0,0,0,-2.3073,-2.3201,-2.3176,-2.3199,-2.3314,-2.3415,-2.343,-2.3416,-2.3356,-2.3417,-2.343,-2.3386,-2.3588,-2.352,-2.3544,-2.363,-2.3832,-2.3845,-2.3857,-2.3957,-2.3984,-2.4007,0,0,0,0,0,0,-2.3082,-2.3111,-2.3172,-2.3212,-2.3238,-2.341,-2.3306,-2.3306,-2.3349,-2.3339,-2.3385,-2.3387,-2.3377,-2.3507,-2.3529,-2.361,-2.3462,-2.3837,-2.3848,-2.3858,-2.3966,-2.3989,-2.4008,0,0,0,0,0,-2.3089,-2.3113,-2.3301,-2.321,-2.3233,-2.3245,-2.3301,-2.33,-2.3333,-2.3354,-2.3355,-2.3319,-2.338,-2.3397,-2.352,-2.3601,-2.3447,-2.3455,-2.3844,-2.3853,-2.386,-2.3977,0,0,0,0,0,0,-2.3095,-2.3112,-2.3305,-2.3311,-2.3161,-2.3234,-2.3245,-2.3295,-2.3345,-2.3348,-2.3286,-2.3278,-2.3384,-2.3396,-2.341,-2.3599,-2.3435,-2.3443,-2.3448,-2.3851,-2.3857,-2.3863,0,0,0,0,0,0,-2.31,-2.3118,-2.3308,-2.3247,-2.3246,-2.3225,-2.3235,-2.3337,-2.3346,-2.3275,-2.3269,-2.3282,-2.3363,-2.3396,-2.3407,-2.3566,-2.3425,-2.3433,-2.3439,-2.3442,-2.3856,-2.3862,0,0,0,0,0,0,-2.3107,-2.3123,-2.3245,-2.3244,-2.3243,-2.3312,-2.3315,-2.3434,-2.3294,-2.3273,-2.3281,-2.3275,-2.3365,-2.3374,-2.3405,-2.356,-2.3565,-2.3426,-2.3431,-2.3435,-2.3437,0,0,0,0,0,0,0,-2.3113,-2.3011,-2.3268,-2.3242,-2.3241,-2.3369,-2.3371,-2.3372,-2.3293,-2.3287,-2.3282,-2.3277,-2.338,-2.3389,-2.3398,-2.3556,0,0,-2.3425,-2.3429,0,0,0,0,0,0,0,0,-2.3004,-2.3009,-2.3268,-2.3269,-2.3271,-2.3369,-2.3371,-2.3372,-2.3292,-2.3288,-2.3283,-2.3279,-2.3382,-2.3389,-2.3397,0,0,0,0,0,0,0,0,0,0,0,0,0,0,0,-2.3268,-2.3269,0,-2.3369,-2.3371,-2.3372,-2.3291,-2.3288,-2.3284,-2.3281,-2.3384,-2.339,-2.3396,0,0,0,0,0,0,0,0,0,0,0,0,0,0,0,0,0,0,0,0,0,0,0,0,0,0,0,0,0,0,0,0,0,0,0,0,0,0,0,0,0,0,0,0,0,0,0,0,0,0,0,0,0,0,0,0,0,0,0,0,0,0,0,0,0,0,0,0,0]}],[{"header":{"parameterUnit":"kt","parameterCategory":2,"dx":1,"dy":1,"la1":30.253999710083008,"la2":30.299108505249023,"lo1":-89.0895004272461,"lo2":-89.04439544677734,"nx":28,"ny":28,"refTime":"2022-09-20T09:00:00:Z","depth":0,"parameterNumber":2,"parameterNumberName":"V-component_of_WINDS"},"data":[-8.2272,-8.2419,-8.2417,-8.2581,-8.2606,-8.2716,-8.2754,-8.2801,-8.2837,-8.2965,-8.3036,-8.3044,-8.3075,-8.3156,-8.323,-8.3231,-8.3262,-8.3317,-8.3308,-8.3072,-8.3038,-8.3006,-8.2973,-8.3324,-8.3325,-8.3554,-8.3556,-8.3557,-8.2098,-8.2125,-8.2212,-8.2294,-8.2367,-8.2313,-8.2371,-8.2435,-8.2533,-8.2579,-8.2649,-8.2759,-8.2844,-8.2856,-8.2935,-8.2999,-8.2976,-8.3021,-8.3015,-8.302,-8.2768,-8.2732,-8.3038,-8.3038,-8.3038,-8.3038,-8.3038,-8.3038,-8.1778,-8.1867,-8.1916,-8.2009,-8.2049,-8.2103,-8.2184,-8.2194,-8.2276,-8.2363,-8.234,-8.2449,-8.2491,-8.2583,-8.2611,-8.2694,-8.2642,-8.2688,-8.2699,-8.2711,-8.2725,-8.2394,-8.2706,-8.2706,-8.2705,-8.2704,-8.2703,0,-8.1543,-8.1536,-8.1619,-8.1702,-8.1769,-8.1832,-8.1887,-8.1937,-8.1913,-8.1982,-8.2079,-8.2134,-8.2239,-8.2327,-8.24,-8.2419,-8.2365,-8.2359,-8.2391,-8.2404,-8.2406,-8.2405,-8.1992,-8.235,-8.2347,-8.2345,-8.2343,-8.2342,-8.122,-8.1324,-8.1373,-8.1431,-8.1462,-8.1556,-8.1611,-8.1582,-8.1641,-8.1702,-8.1779,-8.1868,-8.1938,-8.2091,-8.2096,-8.2173,-8.2147,-8.2284,-8.2158,-8.2167,-8.2148,-8.2142,-8.2151,-8.2309,-8.2313,-8.2317,-8.2319,0,-8.1038,-8.1033,-8.1192,-8.1229,-8.1241,-8.135,-8.1378,-8.1463,-8.1462,-8.1578,-8.1603,-8.16,-8.1694,-8.1677,-8.178,-8.1768,-8.194,-8.1913,-8.1925,-8.1919,-8.2039,-8.2027,-8.2434,-8.2485,-8.2121,-8.2125,-8.2128,0,-8.0759,-8.0896,-8.0879,-8.0972,-8.1122,-8.1091,-8.1239,-8.1253,-8.129,-8.1381,-8.1319,-8.1405,-8.1369,-8.1452,-8.1434,-8.1572,-8.1591,-8.1589,-8.1582,-8.1594,-8.1595,-8.1622,-8.1605,-8.1565,-8.1563,-8.1561,-8.1559,0,-8.0474,-8.0626,-8.0777,-8.081,-8.0861,-8.0932,-8.0956,-8.0997,-8.105,-8.1115,-8.1148,-8.1226,-8.1268,-8.1327,-8.1304,-8.1219,-8.1472,-8.135,-8.147,-8.1471,-8.1526,-8.1523,-8.1888,-8.1557,-8.1556,-8.1555,-8.1555,0,-8.0247,-8.0319,-8.054,-8.058,-8.0621,-8.0719,-8.0796,-8.0876,-8.0923,-8.0919,-8.097,-8.0926,-8.1046,-8.0926,-8.109,-8.0986,-8.103,-8.104,-8.1048,-8.1056,-8.0923,-8.113,-8.1481,-8.1517,-8.1065,-8.1061,-8.1058,0,-7.9921,-8.0143,-8.0118,-8.0327,-8.0426,-8.0351,-8.0459,-8.0504,-8.0508,-8.0589,-8.0591,-8.0684,-8.0592,-8.0618,-8.0702,-8.0707,-8.0842,-8.0688,-8.0801,-8.0805,-8.0791,-8.1114,-8.117,-8.1407,-8.1005,-8.1011,-8.1015,0,-7.9668,-7.9733,-7.9772,-7.9808,-7.9865,-7.9948,-8.0072,-8.0159,-8.0215,-8.0272,-8.0373,-8.0504,-8.0438,-8.0483,-8.0454,-8.0542,-8.0749,-8.046,-8.046,-8.0512,-8.0978,-8.1031,-8.1071,-8.071,-8.0716,-8.0721,-8.0973,0,-7.9325,-7.9435,-7.9541,-7.9624,-7.9686,-7.9816,-7.9802,-7.9867,-7.9835,-7.9836,-7.9985,-8.0016,-8.0101,-8.0142,-8.0111,-8.0319,-8.0281,-8.021,-8.0091,-8.0304,-8.0386,-8.042,-7.997,-7.9966,-7.9963,-7.9961,0,0,-7.9013,-7.9171,-7.9141,-7.9263,-7.9312,-7.9233,-7.9373,-7.9411,-7.9491,-7.9526,-7.946,-7.9648,-7.9676,-7.9858,-7.9923,-7.9958,-7.9992,-7.9919,-8.0203,-8.023,-8.0255,-8.0344,-8.0379,-7.9955,-7.9954,-7.9953,-7.9952,0,-7.8885,-7.8922,-7.9063,-7.9103,-7.916,-7.9156,-7.919,-7.9231,-7.9238,-7.9385,-7.9314,-7.9401,-7.9553,-7.9591,-7.9631,-7.9897,-7.9837,-7.9924,-8.0073,-8.0173,-8.0204,-8.0232,-8.0325,-8.0359,-7.9945,-7.9945,-7.9945,0,-7.8632,-7.8666,-7.8733,-7.8845,-7.8881,-7.8985,-7.8858,-7.8974,-7.9049,-7.8952,-7.9099,-7.9114,-7.9163,-7.9339,-7.9416,-7.9358,-7.9697,-7.9587,-7.9606,-7.9613,-7.9709,-7.9746,-7.978,-7.9339,-7.9337,-7.9335,0,0,-7.8523,-7.8626,-7.8651,-7.8817,-7.8845,-7.884,-7.8893,-7.8867,-7.8916,-7.8936,-7.8954,-7.9001,-7.9088,-7.9147,-7.9228,-7.9423,-7.9429,-7.9513,-7.9542,-7.9565,-7.9586,-7.9687,-7.9725,-7.9328,-7.9328,-7.9327,0,0,-7.8469,-7.8507,-7.8467,-7.8658,-7.8709,-7.8742,-7.8842,-7.8793,-7.8865,-7.8848,-7.8806,-7.8817,-7.898,-7.8997,-7.8896,-7.9184,-7.9067,-7.9091,-7.9168,-7.9204,-7.9232,-7.9224,-7.8768,0,0,0,0,0,-7.8332,-7.8503,-7.8466,-7.8496,-7.8637,-7.8763,-7.878,-7.8752,-7.8669,-7.8749,-7.8756,-7.8689,-7.8934,-7.8844,-7.8872,-7.8984,-7.9229,-7.9247,-7.9263,-7.9408,-7.9446,-7.9477,0,0,0,0,0,0,-7.8343,-7.838,-7.8462,-7.8503,-7.8535,-7.8757,-7.8611,-7.8607,-7.866,-7.8646,-7.869,-7.869,-7.8666,-7.8827,-7.8853,-7.896,-7.8759,-7.9236,-7.9251,-7.9264,-7.9421,-7.9452,-7.9478,0,0,0,0,0,-7.8352,-7.8382,-7.8616,-7.85,-7.8528,-7.8531,-7.8604,-7.86,-7.864,-7.8651,-7.8649,-7.8614,-7.8669,-7.8689,-7.8842,-7.8949,-7.874,-7.875,-7.9246,-7.9257,-7.9268,-7.9436,0,0,0,0,0,0,-7.8359,-7.8378,-7.862,-7.8627,-7.8435,-7.8517,-7.853,-7.8594,-7.8641,-7.8642,-7.8572,-7.856,-7.8674,-7.8689,-7.8704,-7.8947,-7.8726,-7.8736,-7.8742,-7.9255,-7.9264,-7.9272,0,0,0,0,0,0,-7.8362,-7.8385,-7.8624,-7.8542,-7.854,-7.8506,-7.8517,-7.8642,-7.8643,-7.8559,-7.8551,-7.8567,-7.8649,-7.8689,-7.8701,-7.8898,-7.8714,-7.8724,-7.873,-7.8735,-7.9262,-7.9269,0,0,0,0,0,0,-7.837,-7.839,-7.854,-7.8539,-7.8536,-7.8612,-7.8615,-7.876,-7.8577,-7.8558,-7.8559,-7.8551,-7.8652,-7.8663,-7.8699,-7.8892,-7.8896,-7.8715,-7.8721,-7.8726,-7.8729,0,0,0,0,0,0,0,-7.8378,-7.8255,-7.8579,-7.8535,-7.8532,-7.8693,-7.8694,-7.8696,-7.8575,-7.8568,-7.8561,-7.8554,-7.866,-7.867,-7.8681,-7.8887,0,0,-7.8714,-7.8718,0,0,0,0,0,0,0,0,-7.8246,-7.8252,-7.858,-7.8581,-7.8583,-7.8693,-7.8694,-7.8696,-7.8574,-7.8568,-7.8562,-7.8557,-7.8663,-7.8671,-7.868,0,0,0,0,0,0,0,0,0,0,0,0,0,0,0,-7.858,-7.8581,0,-7.8693,-7.8694,-7.8696,-7.8573,-7.8568,-7.8564,-7.8559,-7.8665,-7.8672,-7.8679,0,0,0,0,0,0,0,0,0,0,0,0,0,0,0,0,0,0,0,0,0,0,0,0,0,0,0,0,0,0,0,0,0,0,0,0,0,0,0,0,0,0,0,0,0,0,0,0,0,0,0,0,0,0,0,0,0,0,0,0,0,0,0,0,0,0,0,0,0]}]]]